Regional Weather Roundup
Issued by NWS

Home | Current Version | Previous Version | Graphics & Text | Print | Product List | Glossary On
Versions: 1 2 3 4 5 6 7 8 9 10 11 12 13 14 15 16 17 18 19 20 21 22 23 24 25 26 27 28 29 30 31 32 33 34 35 36 37 38 39 40 41 42 43 44 45 46 47 48 49 50
000
ASUS45 KABQ 221401
RWRNM
NEW MEXICO REGIONAL WEATHER ROUNDUP
NATIONAL WEATHER SERVICE ALBUQUERQUE NM
800 AM MDT SUN OCT 22 2017

NOTE: "FAIR" MEANS FEW OR NO CLOUDS BELOW 12,000 FEET AGL WITH NO
       SIGNIFICANT WEATHER OR OBSTRUCTIONS TO VISION.

      THIS PRODUCT IS RELEASED AS TWO VERSIONS.  ONE VERSION NEAR
      THE TOP OF THE HOUR CONTAINING PRELIMINARY DATA FROM ALBUQUERQUE
      AND OTHER STATIONS.  A FINAL VERSION WITH ADDITIONAL DATA IS
      ISSUED ABOUT 10 MINUTES AFTER THE HOUR.

NMZ501-503-504-510>518-221500-
NORTHWEST PLATEAU/NORTHCENTRAL MOUNTAINS

CITY           SKY/WX    TMP DP  RH WIND       PRES   REMARKS
FARMINGTON     FAIR      32  11  41 E6        30.39R WCI  26
LOS ALAMOS     FAIR      36   6  28 CALM      30.39R
SANTA FE       FAIR      36   9  32 NW7       30.37R WCI  30
TAOS           FAIR      24  10  55 CALM      30.43S
ANGEL FIRE     FAIR      20  13  74 NE3       30.41R

$$
NMZ402-403-502-505>509-221500-
WESTCENTRAL MOUNTAINS/SOUTHWEST MOUNTAINS

CITY           SKY/WX    TMP DP  RH WIND       PRES   REMARKS
GALLUP         FAIR      24   8  50 E3        30.43R
GRANTS         FAIR      26  16  65 NW8       30.45R WCI  17
SILVER CITY    FAIR      40  15  35 NW10      30.35R WCI  34

$$
NMZ407-409-411-412-221500-
SOUTHERN DESERTS

CITY           SKY/WX    TMP DP  RH WIND       PRES   REMARKS
DEMING         FAIR      48  18  30 E9        30.33R
LAS CRUCES     FAIR      49  21  33 NW5       30.32S
HOLLOMAN AFB   FAIR      44  24  44 NW6       30.34R HAZE
ALAMOGORDO     FAIR      41  23  48 N7        30.33R
T OR C         FAIR      47  14  26 CALM      30.35R

$$
NMZ519>523-221500-
CENTRAL VALLEYS/CENTRAL HIGHLANDS

CITY           SKY/WX    TMP DP  RH WIND       PRES   REMARKS
ALBUQUERQUE    FAIR      39   9  29 CALM      30.38S
DOUBLE EAGLE   CLEAR     39   7  26 CALM      30.39R
MORIARTY ARPT  FAIR      38  11  32 CALM      30.38S
CLINES CORNERS NOT AVBL
BELEN          FAIR      37  15  40 NW5       30.39S WCI  33
SOCORRO        FAIR      41  11  29 N6        30.38S

$$
NMZ524>526-539-540-221500-
SOUTHCENTRAL MOUNTAINS

CITY           SKY/WX    TMP DP  RH WIND       PRES   REMARKS
RUIDOSO        FAIR      46   0  14 W9        30.40R

$$
NMZ527>531-221500-
NORTHEAST HIGHLANDS/NORTHEAST PLAINS

CITY           SKY/WX    TMP DP  RH WIND       PRES   REMARKS
LAS VEGAS      FAIR      36  20  52 CALM      30.34R
RATON          FAIR      31  25  78 NW6       30.31R WCI  25
CLAYTON        FAIR      38  19  46 W7        30.30R HAZE    WCI  33

$$
NMZ532>537-221500-
EASTCENTRAL PLAINS

CITY           SKY/WX    TMP DP  RH WIND       PRES   REMARKS
SANTA ROSA     FAIR      36  29  74 W3        30.31R
TUCUMCARI      FAIR      40  35  83 CALM      30.29S
CANNON AFB     FAIR      41  38  90 NW5       30.33R
CLOVIS AIRPORT FAIR      40  34  79 CALM      30.33R

$$
NMZ028-029-538-221500-
SOUTHEAST PLAINS

CITY           SKY/WX    TMP DP  RH WIND       PRES   REMARKS
ROSWELL        FAIR      45  31  58 CALM      30.33R
ARTESIA        FAIR      46  32  57 W7        30.34R
CARLSBAD       FAIR      46  38  73 W3        30.32R
HOBBS          SUNNY     43  36  75 N9        30.32R


$$




USA.gov is the U.S. government's official web portal to all federal, state and local government web resources and services.